Date_and_time,latitude,longitude,wind_speed,RelWindDirFrom,WindDirFrom,air_pressure,air_temperature,relative_humidity,Temp,platform_speed_wrt_ground,air_pressure_at_mean_sea_level,platform_orientation
2019-09-02 00:00,50.630455,-96.9807783333333,18.9,22.8,3,991.76,16.6,64,17.99,0.0,1018.05,38.0
2019-09-02 00:10,50.630455,-96.9807766666667,15.2,22.3,354,991.97,16.5,62,17.99,0.0,1018.28,38.0
2019-09-02 00:20,50.630455,-96.9807783333333,15.4,21.3,352,992.10,16.4,60,17.99,0.0,1018.43,38.0
2019-09-02 00:30,50.630455,-96.9807783333333,14.6,22.2,355,992.29,16.1,60,17.99,0.0,1018.62,38.0
2019-09-02 00:40,50.630455,-96.9807783333333,14.4,20.3,349,992.38,15.9,59,17.99,0.0,1018.73,38.0
2019-09-02 00:50,50.630455,-96.9807783333333,13.2,17.7,346,992.46,15.5,59,17.99,0.0,1018.84,38.0
2019-09-02 01:00,50.630455,-96.9807766666667,10.0,14.9,335,992.64,15.1,59,17.99,0.0,1019.06,48.3
2019-09-02 01:10,50.630455,-96.9807766666667,10.6,16.6,341,992.71,14.7,61,17.98,0.0,1019.14,48.3
2019-09-02 01:20,50.630455,-96.9807783333333,10.7,15.2,339,992.82,14.4,62,17.95,0.0,1019.27,48.3
2019-09-02 01:30,50.630455,-96.9807783333333,10.3,19.2,338,992.92,14.1,63,17.92,0.0,1019.41,48.3
2019-09-02 01:40,50.630455,-96.9807766666667,9.2,15.2,334,993.09,13.6,63,17.90,0.0,1019.60,48.3
2019-09-02 01:50,50.630455,-96.9807766666667,9.7,14.0,336,993.17,13.4,64,17.88,0.0,1019.70,48.3
2019-09-02 02:00,50.630455,-96.9807766666667,11.5,15.2,339,993.20,13.3,64,17.87,0.0,1019.75,167.4
2019-09-02 02:10,50.630455,-96.9807766666667,11.5,17.1,339,993.31,13.3,65,17.87,0.0,1019.86,167.4
2019-09-02 02:20,50.630455,-96.9807766666667,11.2,15.4,340,993.44,13.0,65,17.88,0.0,1020.03,167.4
2019-09-02 02:30,50.6304716666667,-96.9807916666667,11.9,15.7,339,993.55,12.9,64,17.88,0.0,1020.15,167.4
2019-09-02 02:40,50.63046,-96.980775,10.4,15.1,331,993.70,12.6,64,17.87,0.0,1020.34,167.4
2019-09-02 02:50,50.63046,-96.9807783333333,9.1,12.4,328,993.87,12.3,65,17.86,0.0,1020.55,167.4
2019-09-02 03:00,50.63046,-96.98078,8.4,12.3,326,994.01,11.9,67,17.86,0.0,1020.72,360.0
2019-09-02 03:10,50.6304583333333,-96.9807783333333,7.5,10.9,326,994.10,11.6,68,17.86,0.0,1020.85,360.0
2019-09-02 03:20,50.6304583333333,-96.9807783333333,8.2,11.3,320,994.17,11.3,68,17.85,0.0,1020.96,360.0
2019-09-02 03:30,50.6304566666667,-96.9807766666667,7.9,11.2,316,994.27,11.0,68,17.85,0.0,1021.09,360.0
2019-09-02 03:40,50.63044,-96.9807733333333,7.9,11.6,317,994.31,10.8,69,17.85,0.0,1021.15,360.0
2019-09-02 03:50,50.630445,-96.9807733333333,7.7,11.9,323,994.38,10.6,70,17.85,0.0,1021.23,360.0
2019-09-02 04:00,50.6304516666667,-96.9808183333333,6.9,10.5,326,994.44,10.6,70,17.85,0.0,1021.30,270.0
2019-09-02 04:10,50.6304533333333,-96.980785,6.8,9.0,326,994.51,10.4,72,17.85,0.0,1021.39,270.0
2019-09-02 04:20,50.63045,-96.980785,6.7,8.9,324,994.60,10.1,73,17.84,0.0,1021.51,270.0
2019-09-02 04:30,50.6304466666667,-96.980785,7.4,10.9,326,994.55,10.0,73,17.82,0.0,1021.47,270.0
2019-09-02 04:40,50.6304466666667,-96.9807833333333,7.5,10.4,326,994.60,9.9,73,17.81,0.0,1021.54,270.0
2019-09-02 04:50,50.6304483333333,-96.9807833333333,7.0,9.8,327,994.77,9.7,74,17.81,0.0,1021.74,270.0
2019-09-02 05:00,50.6304483333333,-96.9807833333333,7.0,11.0,325,994.85,9.6,75,17.81,0.0,1021.85,240.8
2019-09-02 05:10,50.6304483333333,-96.980785,7.2,11.0,320,994.91,9.5,75,17.81,0.0,1021.93,240.8
2019-09-02 05:20,50.6304483333333,-96.980785,6.9,9.8,325,994.86,9.5,75,17.81,0.0,1021.90,240.8
2019-09-02 05:30,50.6304383333333,-96.98078,6.7,10.1,328,994.88,9.6,75,17.79,0.0,1021.92,240.8
2019-09-02 05:40,50.63045,-96.9807733333333,6.3,8.9,328,994.95,9.7,73,17.78,0.0,1021.99,240.8
2019-09-02 05:50,50.63045,-96.9807833333333,7.1,10.3,331,994.97,10.0,72,17.77,0.0,1022.01,240.8
2019-09-02 06:00,50.63045,-96.9807883333333,7.3,9.7,330,994.96,10.0,72,17.74,0.0,1022.01,228.3
2019-09-02 06:10,50.63045,-96.9807866666667,7.4,10.1,329,994.94,9.8,72,17.72,0.0,1022.00,228.3
2019-09-02 06:20,50.63045,-96.980785,7.4,10.2,330,994.90,9.7,74,17.72,0.0,1021.97,228.3
2019-09-02 06:30,50.630435,-96.9807716666667,7.0,9.4,328,994.96,9.6,75,17.72,0.0,1022.05,228.3
2019-09-02 06:40,50.63045,-96.9807816666667,6.6,8.8,326,995.05,9.5,75,17.73,0.0,1022.15,228.3
2019-09-02 06:50,50.63045,-96.9807816666667,6.1,8.3,320,995.12,9.1,76,17.71,0.0,1022.24,228.3
2019-09-02 07:00,50.63045,-96.980785,5.5,8.0,316,995.20,8.8,76,17.67,0.0,1022.35,90.0
2019-09-02 07:10,50.6304516666667,-96.9807866666667,4.9,6.8,315,995.24,8.6,77,17.67,0.0,1022.40,90.0
2019-09-02 07:20,50.63045,-96.980785,5.2,7.6,316,995.32,8.4,78,17.65,0.0,1022.49,90.0
2019-09-02 07:30,50.63045,-96.980785,5.6,8.0,316,995.37,8.3,79,17.63,0.0,1022.54,90.0
2019-09-02 07:40,50.63045,-96.980785,6.5,9.1,315,995.40,8.0,80,17.63,0.0,1022.57,90.0
2019-09-02 07:50,50.6304483333333,-96.9807833333333,6.6,9.4,321,995.37,7.9,82,17.65,0.0,1022.54,90.0
2019-09-02 08:00,50.630445,-96.9807966666667,6.7,9.0,326,995.35,7.9,83,17.63,0.0,1022.53,234.7
2019-09-02 08:10,50.6304433333333,-96.9807916666667,6.5,8.6,330,995.31,8.0,85,17.61,0.0,1022.49,234.7
2019-09-02 08:20,50.6304466666667,-96.9807933333333,5.4,7.7,325,995.43,8.4,87,17.61,0.0,1022.60,234.7
2019-09-02 08:30,50.630445,-96.98079,5.1,9.6,318,995.51,8.7,86,17.60,0.0,1022.68,234.7
2019-09-02 08:40,50.6304466666667,-96.9807933333333,10.7,15.8,25,995.48,10.8,80,17.58,0.0,1022.56,234.7
2019-09-02 08:50,50.6304466666667,-96.9807916666667,13.7,16.5,31,995.46,12.7,72,17.56,0.0,1022.46,234.7
2019-09-02 09:00,50.6304466666667,-96.9807883333333,13.9,17.1,30,995.50,12.7,73,17.55,0.0,1022.51,360.0
2019-09-02 09:10,50.6304466666667,-96.9807883333333,14.8,17.3,36,995.45,12.5,75,17.54,0.0,1022.48,360.0
2019-09-02 09:20,50.6304383333333,-96.9807616666667,14.6,17.7,38,995.42,12.4,77,17.52,0.0,1022.46,360.0
2019-09-02 09:30,50.6304366666667,-96.98078,14.4,17.2,43,995.47,12.2,77,17.51,0.0,1022.53,360.0
2019-09-02 09:40,50.630445,-96.9807883333333,15.2,18.6,44,995.55,12.1,75,17.51,0.0,1022.62,360.0
2019-09-02 09:50,50.630445,-96.980785,15.5,17.9,46,995.57,12.1,76,17.50,0.0,1022.64,360.0
2019-09-02 10:00,50.6304483333333,-96.9807833333333,16.1,19.3,49,995.56,12.1,76,17.51,0.0,1022.63,360.0
2019-09-02 10:10,50.63045,-96.980785,16.8,19.2,55,995.57,12.0,73,17.54,0.0,1022.62,360.0
2019-09-02 10:20,50.63045,-96.9807816666667,16.5,19.8,58,995.67,12.0,74,17.55,0.0,1022.71,360.0
2019-09-02 10:30,50.6304466666667,-96.9807766666667,16.4,19.8,58,995.73,12.0,72,17.55,0.0,1022.67,360.0
2019-09-02 10:40,50.6304516666667,-96.98076,16.4,19.5,60,995.73,12.0,72,17.52,0.0,1022.58,360.0
2019-09-02 10:50,50.6304516666667,-96.9807616666667,17.0,20.6,58,995.70,11.9,69,17.48,0.0,1022.56,360.0
2019-09-02 11:00,50.6304483333333,-96.980765,17.2,20.1,53,995.65,12.0,66,17.44,0.0,1022.52,75.8
2019-09-02 11:10,50.6304533333333,-96.980775,16.3,18.9,56,995.71,12.0,66,17.43,0.0,1022.58,75.8
2019-09-02 11:20,50.6304533333333,-96.980775,16.1,18.8,56,995.68,12.0,68,17.40,0.0,1022.56,75.8
2019-09-02 11:30,50.6304533333333,-96.98078,15.5,18.5,59,995.80,12.1,68,17.39,0.0,1022.69,75.8
2019-09-02 11:40,50.6304533333333,-96.98078,16.6,19.5,60,995.80,12.0,66,17.38,0.0,1022.68,75.8
2019-09-02 11:50,50.6304533333333,-96.98078,15.9,19.2,59,995.86,12.1,65,17.37,0.0,1022.75,75.8
2019-09-02 12:00,50.630455,-96.98078,15.9,19.6,61,995.92,12.2,64,17.36,0.0,1022.80,48.3
2019-09-02 12:10,50.630455,-96.9807783333333,15.6,18.5,66,995.91,12.2,67,17.33,0.0,1022.79,48.3
2019-09-02 12:20,50.630455,-96.9807783333333,15.5,18.4,67,995.96,12.2,65,17.32,0.0,1022.85,48.3
2019-09-02 12:30,50.630455,-96.9807766666667,15.2,19.0,68,995.96,12.3,64,17.31,0.0,1022.85,48.3
2019-09-02 12:40,50.630455,-96.9807766666667,15.6,18.6,70,995.91,12.3,62,17.28,0.0,1022.79,48.3
2019-09-02 12:50,50.6304566666667,-96.9807766666667,16.1,18.6,74,995.83,12.4,63,17.23,0.0,1022.71,48.3
2019-09-02 13:00,50.6304566666667,-96.9807766666667,15.8,18.5,71,995.80,12.4,64,17.19,0.0,1022.67,60.8
2019-09-02 13:10,50.6304233333333,-96.980775,15.7,18.2,70,995.67,12.3,66,17.18,0.0,1022.54,60.8
2019-09-02 13:20,50.63045,-96.9807783333333,16.0,18.2,71,995.53,12.4,64,17.17,0.0,1022.39,60.8
2019-09-02 13:30,50.6304516666667,-96.98078,15.2,17.8,71,995.59,12.3,67,17.15,0.0,1022.46,60.8
2019-09-02 13:40,50.6304333333333,-96.98077,14.1,16.5,75,995.63,12.3,71,17.15,0.0,1022.50,60.8
2019-09-02 13:50,50.6304566666667,-96.9807966666667,13.7,16.3,75,995.66,12.1,72,17.13,0.0,1022.53,60.8
2019-09-02 14:00,50.6304516666667,-96.980775,13.4,15.8,74,995.59,12.2,72,17.13,0.0,1022.45,347.4
2019-09-02 14:10,50.63045,-96.9807766666667,11.9,14.5,78,995.59,12.5,71,17.12,0.0,1022.44,347.4
2019-09-02 14:20,50.6304516666667,-96.9807766666667,11.8,14.4,75,995.57,12.6,70,17.12,0.0,1022.41,347.4
2019-09-02 14:30,50.6304516666667,-96.98078,10.4,13.4,79,995.70,12.7,72,17.11,0.0,1022.54,347.4
2019-09-02 14:40,50.63045,-96.98078,9.3,11.7,81,995.65,12.8,70,17.13,0.0,1022.48,347.4
2019-09-02 14:50,50.63045,-96.98078,8.2,10.2,92,995.84,13.1,70,17.15,0.0,1022.67,347.4
2019-09-02 15:00,50.6304616666667,-96.98079,8.6,10.8,94,995.64,13.2,70,17.15,0.0,1022.46,360.0
2019-09-02 15:10,50.630445,-96.9807683333333,8.9,11.3,99,995.49,13.2,69,17.15,0.0,1022.30,360.0
2019-09-02 15:20,50.6304433333333,-96.9807716666667,8.7,11.2,104,995.26,13.2,69,17.15,0.0,1022.07,360.0
2019-09-02 15:30,50.6304433333333,-96.980775,8.3,11.2,102,995.13,13.2,70,17.17,0.0,1021.93,360.0
2019-09-02 15:40,50.6304333333333,-96.9807833333333,8.6,10.8,104,994.98,13.3,70,17.19,0.0,1021.78,360.0
2019-09-02 15:50,50.6304483333333,-96.9807733333333,8.6,10.6,98,994.73,13.5,71,17.21,0.0,1021.51,360.0
2019-09-02 16:00,50.6304516666667,-96.9807816666667,8.6,10.9,110,994.78,13.4,70,17.23,0.0,1021.56,270.0
2019-09-02 16:10,50.6304483333333,-96.9807866666667,8.6,11.5,114,994.58,13.3,68,17.21,0.0,1021.35,270.0
2019-09-02 16:20,50.6304483333333,-96.9807866666667,8.9,11.7,120,994.65,13.4,66,17.22,0.0,1021.41,270.0
2019-09-02 16:30,50.63045,-96.9807866666667,8.9,11.1,119,994.56,13.4,63,17.24,0.0,1021.31,270.0
2019-09-02 16:40,50.63045,-96.9807833333333,8.8,11.5,126,994.58,13.3,62,17.24,0.0,1021.33,270.0
2019-09-02 16:50,50.63045,-96.9807833333333,8.3,10.5,124,994.50,13.3,62,17.25,0.0,1021.24,270.0
2019-09-02 17:00,50.6304483333333,-96.9807833333333,8.0,10.6,119,994.31,13.4,64,17.27,0.0,1021.04,234.7
2019-09-02 17:10,50.63045,-96.9807833333333,7.8,9.9,113,994.13,13.5,63,17.29,0.0,1020.84,234.7
2019-09-02 17:20,50.6304516666667,-96.98078,7.8,11.5,118,993.90,13.7,62,17.27,0.0,1020.61,234.7
2019-09-02 17:30,50.630455,-96.9807783333333,7.9,10.0,108,993.96,13.8,60,17.26,0.0,1020.66,234.7
2019-09-02 17:40,50.630455,-96.9807766666667,7.4,10.1,116,993.96,13.8,60,17.26,0.0,1020.65,234.7
2019-09-02 17:50,50.630455,-96.9807733333333,7.5,10.3,123,993.73,13.8,58,17.26,0.0,1020.42,234.7
2019-09-02 18:00,50.630455,-96.980775,6.8,9.4,109,993.49,14.1,57,17.26,0.0,1020.16,137.2
2019-09-02 18:10,50.630455,-96.9807783333333,6.3,8.7,112,993.39,14.3,57,17.27,0.0,1020.04,137.2
2019-09-02 18:20,50.6304483333333,-96.98079,6.9,10.5,111,993.17,14.3,58,17.28,0.0,1019.82,137.2
2019-09-02 18:30,50.6304533333333,-96.980785,6.8,10.0,123,993.16,14.2,58,17.28,0.0,1019.82,137.2
2019-09-02 18:40,50.63045,-96.980775,6.5,9.2,142,993.06,13.9,59,17.29,0.0,1019.73,137.2
2019-09-02 18:50,50.63045,-96.980745,7.1,9.6,145,993.00,13.6,58,17.31,0.0,1019.67,137.2
2019-09-02 19:00,50.6304883333333,-96.980775,5.6,8.1,145,992.72,13.8,58,17.31,0.0,1019.37,12.2
2019-09-02 19:10,50.6304566666667,-96.9807866666667,7.1,9.5,125,992.34,14.3,57,17.32,0.0,1018.95,12.2
2019-09-02 19:20,50.6304533333333,-96.9807883333333,7.5,11.5,122,992.00,14.6,57,17.32,0.0,1018.58,12.2
2019-09-02 19:30,50.6304516666667,-96.98079,8.8,11.8,122,991.66,14.9,55,17.33,0.0,1018.22,12.2
2019-09-02 19:40,50.6304516666667,-96.98079,10.4,13.9,107,991.18,15.2,53,17.35,0.0,1017.71,12.2
2019-09-02 19:50,50.6304516666667,-96.9807883333333,10.5,13.7,119,991.10,15.3,52,17.36,0.0,1017.61,12.2
2019-09-02 20:00,50.630435,-96.9807766666667,10.0,12.5,116,991.21,15.4,53,17.37,0.0,1017.71,143.4
2019-09-02 20:10,50.63048,-96.9808083333333,11.7,15.6,113,991.02,15.5,52,17.41,0.0,1017.51,143.4
2019-09-02 20:20,50.6304466666667,-96.98079,12.5,15.0,117,990.71,15.3,51,17.44,0.0,1017.20,143.4
2019-09-02 20:30,50.6304516666667,-96.98079,12.1,15.4,108,990.41,15.4,52,17.46,0.0,1016.91,143.4
2019-09-02 20:40,50.6304516666667,-96.980785,12.7,16.2,112,989.93,15.5,52,17.46,0.0,1016.42,143.4
2019-09-02 20:50,50.63045,-96.9807833333333,13.9,17.0,101,989.61,15.6,50,17.46,0.0,1016.09,143.4
2019-09-02 21:00,50.6304483333333,-96.9807816666667,12.9,16.5,101,989.47,15.6,51,17.43,0.0,1015.91,240.8
2019-09-02 21:10,50.6304483333333,-96.9807816666667,13.3,16.4,106,989.37,15.8,49,17.42,0.0,1015.78,240.8
2019-09-02 21:20,50.6304383333333,-96.9807933333333,13.1,17.0,109,989.32,16.1,50,17.44,0.0,1015.70,240.8
2019-09-02 21:30,50.6304533333333,-96.9807766666667,13.0,15.6,108,989.01,16.2,51,17.43,0.0,1015.37,240.8
2019-09-02 21:40,50.630455,-96.980775,14.9,17.7,112,988.63,16.2,50,17.44,0.0,1014.98,240.8
2019-09-02 21:50,50.630445,-96.9807833333333,15.7,19.4,109,988.35,16.2,51,17.45,0.0,1014.69,240.8
2019-09-02 22:00,50.630445,-96.9807833333333,14.8,18.7,110,988.27,16.1,53,17.44,0.0,1014.61,360.0
2019-09-02 22:10,50.6304483333333,-96.9807833333333,14.9,17.9,105,988.13,16.2,52,17.43,0.0,1014.46,360.0
2019-09-02 22:20,50.6304483333333,-96.9807833333333,15.6,18.7,108,987.94,16.4,53,17.41,0.0,1014.25,360.0
2019-09-02 22:30,50.63045,-96.9807833333333,16.2,19.1,109,987.61,16.3,54,17.40,0.0,1013.92,360.0
2019-09-02 22:40,50.63045,-96.9807833333333,15.8,20.0,108,987.48,16.3,55,17.39,0.0,1013.78,360.0
2019-09-02 22:50,50.63045,-96.980785,15.1,18.0,114,987.47,16.4,53,17.39,0.0,1013.76,360.0
2019-09-02 23:00,50.6304516666667,-96.9807833333333,16.2,19.6,117,987.28,16.6,50,17.38,0.0,1013.54,356.8
2019-09-02 23:10,50.6304516666667,-96.9807833333333,16.3,18.6,113,987.15,16.3,51,17.37,0.0,1013.42,356.8
2019-09-02 23:20,50.6304516666667,-96.9807833333333,17.8,20.7,111,986.75,16.2,53,17.37,0.0,1013.00,356.8
2019-09-02 23:30,50.6304516666667,-96.9807833333333,17.2,21.0,110,986.41,16.1,55,17.36,0.0,1012.67,356.8
2019-09-02 23:40,50.6304516666667,-96.9807833333333,16.0,19.3,106,986.36,16.1,56,17.35,0.0,1012.62,356.8
